Lid_Strength_Index
1 1 2 2 2 2 2 1 1 1 1 0 -0 -0 -1 -1 -1 0 1 -1 3 6 6 4 4 6 6 6 10 7 9 8 9 12 12 12 12 11 12 10 12 13 14 15 13 15 17 7 8 12 9 7 7 7
2 2 2 2 2 2 1 1 1 1 1 1 1 0 -0 -0 -0 0 3 0 -0 5 5 2 2 1 2 3 6 6 8 8 7 10 9 11 12 11 11 14 8 13 10 12 11 12 8 6 7 6 5 7 7 7
2 2 2 2 2 1 1 1 1 1 1 1 1 1 0 -0 -0 0 1 1 3 6 5 5 5 2 1 1 1 8 6 5 6 5 8 9 12 9 13 12 11 9 7 11 10 9 8 7 5 5 5 6 6 7
2 2 2 2 1 1 1 1 1 1 1 1 1 1 1 1 1 1 4 3 3 6 9 7 1 3 1 1 1 2 3 3 4 5 8 10 11 7 11 10 10 8 8 9 11 9 8 7 6 6 6 5 6 5
2 2 1 0 0 -0 -0 -0 0 1 1 1 1 1 1 1 1 2 3 2 2 5 8 7 3 2 1 1 2 2 3 4 6 8 9 10 8 8 8 8 11 8 9 11 13 8 8 9 7 6 6 7 6 7
1 1 1 0 0 0 -0 -0 -0 -0 0 1 1 1 1 1 1 4 9 3 1 2 6 10 4 3 2 2 3 4 3 5 6 8 8 7 5 8 11 12 9 7 7 8 9 7 7 7 7 7 8 7 7 8
1 1 0 0 0 0 0 -0 -0 -0 0 0 1 1 1 1 3 6 7 3 1 2 7 9 8 4 3 3 4 4 3 5 6 7 8 8 7 7 10 13 11 10 7 8 7 7 8 9 10 9 8 8 9 10
1 0 0 0 0 0 0 0 0 -0 0 0 0 1 2 2 3 5 2 2 2 5 5 10 9 7 3 6 8 4 7 6 6 8 7 8 7 7 13 12 12 11 9 10 9 8 9 9 10 10 10 10 11 12
0 0 0 0 0 0 0 0 0 -0 0 0 1 1 2 4 6 4 1 2 2 5 8 9 11 12 4 6 6 6 7 10 7 9 9 8 10 15 14 13 13 12 12 11 9 10 10 10 11 11 11 12 12 13
1 1 1 0 0 0 0 0 0 -0 -0 1 3 6 8 4 1 2 5 8 8 6 5 9 7 10 6 7 8 9 7 10 12 9 7 11 15 12 12 12 12 12 12 11 12 13 13 12 12 13 13 13 13 14
1 1 1 0 0 0 0 0 0 1 1 4 6 6 2 1 3 6 9 9 8 10 7 7 7 9 5 9 10 7 10 9 12 11 11 12 15 14 12 13 13 12 12 13 12 13 13 13 13 14 14 15 15 15
1 1 1 1 0 1 0 0 1 1 2 3 3 2 3 5 7 9 10 9 9 10 7 8 7 7 7 6 9 8 11 10 14 8 11 15 16 14 13 14 14 14 14 14 14 14 14 14 14 15 15 16 16 16
1 1 1 1 1 1 0 1 1 1 1 2 4 6 7 8 11 12 13 11 11 9 8 8 9 7 6 6 8 9 12 12 9 12 15 16 15 14 14 14 15 14 14 15 15 15 16 16 15 16 17 17 17 18
2 2 2 2 3 2 1 1 1 2 3 6 8 12 10 11 11 11 11 10 9 8 8 7 8 8 8 9 10 12 12 10 13 14 17 16 15 15 14 14 15 16 16 16 16 16 16 16 17 17 17 18 18 19
2 3 3 4 3 3 3 3 3 3 6 9 9 13 13 11 10 10 9 9 9 8 8 7 7 8 10 11 10 12 13 14 15 16 15 15 14 14 15 15 15 15 15 16 16 16 17 17 18 18 17 17 18 18
2 2 4 3 4 4 4 4 4 5 7 10 11 11 10 10 10 10 9 10 8 8 8 6 10 11 13 11 13 14 13 15 16 15 14 14 15 15 15 15 15 15 15 15 16 16 17 17 18 18 18 18 18 18
2 3 4 4 4 4 4 5 7 9 10 11 12 10 10 10 11 11 10 10 8 9 10 8 12 14 11 14 15 15 16 15 14 14 14 14 15 15 15 15 15 15 16 16 16 16 16 16 15 16 17 17 17 17
3 5 4 4 4 5 6 6 9 11 13 11 12 12 12 11 11 11 10 9 8 9 10 12 10 14 15 15 17 15 15 14 14 14 15 15 14 14 14 15 15 15 15 14 14 14 14 14 15 15 15 15 16 16
2 4 4 5 4 6 9 9 8 13 12 11 11 11 11 12 11 10 10 9 9 8 9 12 15 16 16 14 15 15 15 15 16 16 15 15 15 15 14 14 14 14 14 13 14 14 14 14 14 14 14 14 15 14
3 3 3 4 4 8 11 10 7 11 12 12 11 12 12 12 11 11 11 11 11 12 15 16 16 15 15 14 14 14 14 14 14 15 15 14 13 13 13 13 14 13 14 14 14 14 14 15 15 15 15 15 14 14
4 5 5 4 6 7 8 10 11 11 11 12 11 11 12 11 12 13 13 12 14 16 17 15 15 14 13 12 12 11 12 11 12 13 14 15 13 13 13 13 13 13 13 13 14 14 14 15 14 14 13 14 14 14
5 5 4 5 8 9 10 8 11 10 11 12 11 11 12 14 14 15 14 16 17 16 15 15 14 14 14 14 14 13 13 13 13 13 14 13 14 14 14 13 13 14 14 14 14 14 14 14 15 13 13 13 14 15
6 4 5 7 10 11 13 8 12 11 13 14 12 14 14 15 14 13 17 17 16 13 13 14 14 14 15 14 14 13 12 13 14 14 14 14 14 13 14 14 13 14 14 14 14 13 14 18 15 14 13 13 13 14
7 9 10 10 11 14 10 12 11 13 13 14 15 17 16 15 13 15 17 16 15 14 15 15 14 15 14 14 15 14 14 13 14 13 13 13 14 15 14 14 14 14 14 14 13 13 13 13 17 13 14 14 14 15
12 16 13 14 11 13 15 15 14 14 16 15 16 16 16 13 15 16 17 17 15 15 14 13 13 13 14 15 15 15 13 13 14 15 14 13 14 14 14 14 14 14 13 13 13 13 14 14 14 14 15 14 16 15
17 17 15 14 14 14 14 16 15 15 15 16 16 14 13 14 16 18 17 15 15 14 14 13 13 14 14 13 14 15 15 13 13 15 15 14 14 14 14 15 14 15 13 13 13 13 13 14 14 15 15 15 19 17
18 18 16 14 13 13 14 13 12 14 15 16 15 15 15 18 19 18 14 13 14 13 12 12 12 13 14 15 15 15 15 15 15 15 15 15 15 14 14 15 15 15 13 14 13 14 14 15 14 15 15 14 14 14
18 17 20 17 17 15 17 16 16 17 17 15 15 18 19 18 19 16 15 14 13 13 13 13 13 13 14 14 14 15 15 15 15 15 15 14 14 14 14 15 15 15 15 14 15 14 14 15 15 15 15 15 15 14
18 17 19 22 19 19 19 18 18 18 17 15 17 19 20 18 16 16 15 14 13 14 16 16 16 15 15 14 14 14 14 15 15 18 17 16 15 16 14 14 13 14 13 14 15 15 14 15 15 15 16 16 15 15
18 15 19 21 21 22 20 17 18 17 17 17 18 18 18 17 15 13 13 13 14 15 15 15 14 15 16 16 17 17 16 16 17 16 16 16 16 15 14 14 14 14 14 14 15 14 13 14 14 14 15 15 15 15
15 15 18 19 21 19 17 16 15 15 15 16 16 18 19 18 17 15 15 14 14 15 15 16 16 15 16 16 16 17 18 18 19 18 16 15 15 15 16 16 15 15 15 15 15 15 16 17 16 16 16 16 17 18
16 18 20 22 21 17 16 15 16 17 17 17 18 16 16 16 18 17 16 14 14 16 16 15 16 18 17 17 18 18 18 17 17 17 16 15 15 16 15 15 15 15 16 16 16 16 16 17 17 17 17 17 18 18
17 17 18 19 20 19 17 16 17 17 17 17 18 17 17 17 19 18 16 15 15 15 17 17 17 17 17 17 17 17 18 19 20 18 19 19 20 19 17 15 15 16 16 17 17 16 17 17 18 18 19 19 19 19